Wind_Speed
57 55 54 52 51 49 47 45 43 43 41 40 39 38 37 36 35 35 34 34 33 33 34 34 34 35 36 37 38 38 39 40 40 41 43 45 46 48 49 50 52 54 56
57 56 54 53 52 51 49 47 44 43 42 40 40 39 38 36 36 35 35 35 34 34 34 34 34 36 37 38 38 39 39 40 41 42 44 45 47 48 49 51 53 55 56
58 57 55 54 53 52 50 49 46 44 42 41 40 39 38 37 36 36 36 35 34 34 34 34 35 37 37 38 38 38 40 41 42 43 44 46 47 48 49 51 54 56 56
59 58 56 54 53 51 50 49 47 45 44 42 41 40 38 37 37 37 36 35 35 35 35 35 36 37 37 37 38 39 40 41 42 43 44 46 47 49 49 52 54 55 56
59 58 57 55 54 52 51 50 49 47 45 43 41 41 40 39 38 37 36 36 36 36 35 35 36 37 37 38 38 39 40 41 42 43 45 46 47 49 50 53 53 54 55
58 58 58 56 55 53 52 51 49 48 46 45 43 42 41 40 38 37 37 37 36 36 35 36 37 37 37 38 39 40 41 42 43 44 45 46 48 49 51 52 53 54 55
58 58 58 57 56 54 52 51 50 49 47 45 45 44 42 41 39 38 37 36 37 36 36 36 36 36 37 38 39 40 41 41 42 43 45 46 48 49 51 52 53 55 56
57 57 57 57 56 54 52 51 51 49 48 46 45 44 43 41 40 39 39 38 37 35 35 36 36 36 37 38 39 40 41 41 42 43 45 46 48 50 51 52 53 55 56
55 56 57 56 55 54 52 50 49 48 47 46 45 44 43 42 40 40 39 37 36 35 35 36 36 37 38 38 39 40 40 41 42 42 44 46 48 49 50 52 53 55 55
53 54 55 55 55 54 53 51 49 48 47 46 45 44 43 42 41 39 38 37 37 36 36 36 36 36 37 38 39 40 40 40 41 43 44 46 47 49 50 52 53 54 54
52 52 54 55 54 54 53 51 50 48 47 46 44 43 42 41 40 38 37 36 36 36 36 36 36 37 37 38 38 38 39 39 41 42 44 46 47 48 50 51 53 53 54
52 52 53 54 54 53 51 50 49 48 47 46 44 43 41 39 39 38 36 35 35 35 35 35 34 35 36 37 37 37 38 39 40 42 44 45 47 48 49 51 52 53 54
52 51 51 53 53 51 50 49 48 47 46 45 44 42 40 38 36 35 35 35 34 34 34 34 34 34 35 35 35 36 37 38 40 42 44 45 47 48 50 51 52 53 55
50 51 50 51 52 51 50 48 47 46 44 44 43 41 39 36 35 34 33 33 34 34 33 33 33 33 34 34 35 36 37 38 40 42 44 46 47 48 49 50 51 53 55
49 49 49 49 50 50 49 47 46 45 44 42 40 39 38 36 35 33 33 33 32 32 32 32 32 32 33 34 34 35 36 38 40 42 44 45 46 48 49 50 52 53 53
47 48 48 48 49 49 48 47 45 43 42 41 40 38 36 36 35 33 32 32 31 31 31 31 32 32 32 33 33 35 36 38 40 42 43 45 46 47 49 50 52 52 52
48 48 47 47 47 46 46 45 44 42 41 40 38 37 36 35 34 32 32 31 31 30 31 31 31 31 32 33 33 35 36 38 40 42 44 44 45 47 49 50 51 51 51
48 48 47 46 45 45 44 43 42 40 39 38 37 36 35 33 32 31 31 30 30 30 30 31 31 31 31 32 33 35 37 39 40 41 42 44 45 47 49 50 51 50 50
45 46 45 45 45 44 43 42 40 39 38 37 36 35 33 32 32 31 30 29 29 29 30 30 30 30 31 32 34 35 37 38 39 40 42 44 45 48 49 50 50 49 49
44 43 43 43 43 43 41 40 39 39 38 36 35 33 32 31 30 29 29 28 28 29 29 28 29 30 30 32 33 34 35 37 39 40 42 43 45 47 48 49 48 48 47
41 41 41 41 41 41 40 39 38 38 36 35 33 32 30 29 28 28 28 28 28 28 28 28 28 29 29 30 31 33 34 37 39 40 41 43 45 47 47 47 48 47 45
39 40 40 40 40 40 38 37 36 36 34 33 32 31 29 28 27 27 27 27 27 26 27 27 28 28 28 29 30 32 35 37 38 40 41 43 45 46 46 46 46 44 43
38 39 39 39 39 38 37 35 35 34 33 32 30 29 28 28 27 27 27 26 26 25 25 26 27 27 28 29 31 33 35 36 38 39 41 43 44 45 45 44 43 42 40
38 38 38 38 37 36 34 34 34 33 31 30 29 28 27 27 26 26 26 24 23 24 24 24 25 26 27 29 31 33 34 36 37 39 41 42 43 43 42 42 41 40 38
36 37 36 36 35 34 33 33 32 31 30 28 27 27 26 26 25 24 23 22 22 22 22 23 25 26 27 28 30 32 34 36 37 39 40 40 41 40 40 39 39 38 36
35 35 35 34 33 32 32 31 30 29 28 28 27 26 26 25 23 22 21 20 21 21 22 23 24 25 26 28 30 32 33 35 36 38 38 38 39 39 38 38 37 35 34
Wind_Direction
220 220 220 222 223 223 224 226 228 230 233 237 240 243 246 249 252 255 258 262 266 270 274 278 282 286 290 292 294 296 298 301 303 306 308 310 312 313 315 316 317 318 318
221 221 221 221 222 224 225 226 228 231 233 236 239 242 245 248 252 255 258 261 265 269 273 278 282 286 289 291 294 296 298 301 304 306 308 310 312 314 315 317 318 319 319
221 221 221 222 222 224 225 226 228 231 233 235 238 242 244 247 251 254 257 260 264 269 273 278 282 286 289 291 294 296 298 301 304 306 308 310 312 314 315 317 319 319 320
220 221 222 223 223 224 226 227 229 231 233 234 237 241 244 247 251 253 256 260 264 269 273 278 282 286 288 291 294 296 299 302 304 306 309 311 312 314 315 317 319 320 321
219 221 221 222 223 224 226 228 230 232 233 235 236 239 242 246 251 253 256 260 264 268 273 278 282 285 288 291 294 297 299 301 304 306 308 310 312 313 315 317 319 321 322
219 220 221 222 223 224 225 227 230 232 233 235 236 239 243 246 250 253 256 260 264 267 272 277 282 285 287 290 293 296 299 301 303 306 307 309 312 313 315 318 320 321 322
219 220 221 223 224 224 226 227 229 231 233 235 237 240 242 245 249 253 256 259 263 266 271 276 281 284 287 290 293 296 300 302 304 306 308 310 312 314 316 318 320 321 323
219 220 221 222 223 225 226 227 228 230 233 235 238 240 242 245 248 252 256 260 263 267 272 277 280 283 287 290 293 296 300 302 304 305 308 310 312 315 317 319 320 322 323
219 220 220 221 223 224 226 228 229 231 232 234 237 239 241 244 248 252 255 258 262 268 273 277 280 283 287 290 293 296 299 301 304 306 309 311 314 316 318 319 321 323 324
219 219 219 220 223 224 226 228 229 230 232 234 237 240 241 244 248 251 253 257 262 267 272 276 279 282 286 289 292 296 299 301 304 307 310 312 315 317 318 320 322 323 324
219 219 219 220 222 224 226 228 230 231 232 234 236 240 242 244 247 250 253 258 262 267 272 275 278 282 286 289 292 295 299 302 305 308 311 314 316 318 319 320 322 324 324
219 219 219 220 221 223 225 227 230 233 234 235 236 240 242 245 247 250 254 258 262 266 271 275 279 283 286 289 292 296 300 303 306 309 312 315 317 318 320 321 323 324 325
219 219 219 220 221 223 225 227 230 232 234 236 238 239 241 244 246 249 253 257 262 267 271 274 279 283 286 289 293 297 300 304 308 310 312 315 317 318 320 322 323 324 325
218 219 220 221 222 223 224 226 228 230 233 236 238 239 240 242 245 249 253 257 263 266 270 276 280 283 286 290 294 298 301 305 309 311 313 315 317 319 321 323 324 325 326
218 219 219 220 221 223 224 225 226 228 232 234 235 238 239 243 247 249 253 258 263 267 272 277 280 284 287 291 295 299 302 306 309 311 314 316 317 319 321 323 325 325 326
218 219 219 220 222 223 223 224 225 227 230 232 234 236 239 244 247 251 254 258 262 267 272 277 281 284 288 292 296 300 303 307 310 312 314 316 318 320 322 324 325 326 326
218 218 219 219 220 221 222 223 225 227 228 230 232 235 239 243 247 252 256 260 264 269 274 278 281 283 287 292 297 301 304 307 310 312 315 317 319 321 323 324 326 326 327
216 217 218 218 219 220 220 222 223 224 226 228 231 234 237 241 246 251 256 260 266 271 275 279 281 284 288 293 297 301 305 308 310 313 316 318 320 322 324 325 326 326 327
216 217 217 218 218 219 219 220 220 222 224 227 231 234 238 242 246 251 255 262 267 271 276 278 281 285 290 294 298 302 306 309 312 315 317 319 321 323 325 326 326 326 327
214 215 217 218 219 217 218 220 221 223 226 228 231 234 239 243 248 252 257 262 267 271 275 278 282 287 291 295 299 304 308 311 313 316 318 320 322 324 325 326 326 327 328
214 214 215 216 216 217 218 220 221 223 226 228 231 235 239 244 248 253 257 261 266 270 273 278 283 288 292 295 301 306 309 312 315 317 319 321 323 324 325 326 327 328 329
211 211 212 213 213 214 215 217 220 221 223 227 231 235 239 243 248 252 255 260 264 268 273 279 283 288 293 298 303 308 310 313 316 319 321 322 323 325 326 327 328 329 330
208 208 209 210 211 213 214 216 218 220 224 228 233 235 239 244 248 252 255 259 263 268 273 278 283 289 293 299 304 308 311 315 318 320 321 322 324 325 327 328 329 330 331
206 207 208 209 210 212 214 216 218 221 224 228 230 234 239 243 246 250 253 257 261 266 272 279 285 289 294 300 305 311 314 317 319 321 321 323 325 326 328 329 330 331 332
204 205 205 207 209 210 213 216 219 221 222 225 229 234 238 241 245 247 250 255 260 267 275 282 286 290 295 301 307 312 316 318 320 321 323 324 326 327 329 330 332 333 333
202 203 204 204 206 208 212 215 217 219 221 223 228 233 236 240 243 244 249 256 263 270 277 284 288 292 298 304 309 313 316 319 321 323 324 325 327 329 330 331 333 334 334
Height
5643 5652 5660 5668 5675 5681 5688 5694 5699 5705 5709 5714 5718 5722 5725 5728 5730 5733 5735 5736 5736 5737 5737 5736 5735 5734 5732 5730 5728 5725 5721 5718 5714 5710 5704 5699 5693 5687 5680 5673 5666 5658 5649
5633 5642 5650 5658 5665 5672 5679 5685 5691 5696 5701 5705 5710 5713 5717 5720 5723 5725 5727 5728 5729 5729 5729 5728 5728 5726 5724 5722 5720 5717 5713 5709 5706 5701 5696 5691 5685 5678 5671 5664 5656 5648 5639
5622 5632 5640 5648 5655 5663 5670 5676 5681 5687 5692 5697 5701 5705 5708 5712 5714 5717 5719 5720 5721 5721 5721 5721 5720 5718 5717 5714 5712 5708 5705 5701 5697 5693 5688 5682 5676 5670 5662 5655 5646 5638 5628
5612 5621 5630 5638 5646 5653 5660 5666 5673 5678 5684 5688 5693 5697 5700 5703 5706 5708 5711 5712 5713 5713 5713 5713 5712 5710 5708 5706 5704 5700 5697 5693 5689 5685 5680 5674 5668 5661 5654 5646 5638 5628 5619
5601 5611 5620 5628 5636 5644 5651 5657 5664 5669 5675 5680 5684 5688 5691 5695 5698 5700 5702 5704 5705 5705 5705 5705 5704 5702 5700 5698 5695 5692 5689 5685 5681 5676 5671 5665 5659 5652 5645 5638 5629 5620 5611
5590 5600 5610 5618 5626 5634 5641 5648 5654 5660 5666 5671 5675 5679 5683 5687 5690 5692 5694 5696 5697 5697 5697 5697 5696 5694 5692 5690 5687 5684 5681 5677 5673 5668 5663 5657 5650 5644 5636 5628 5620 5612 5604
5580 5590 5599 5607 5616 5624 5631 5638 5645 5651 5656 5662 5666 5671 5675 5678 5681 5683 5685 5687 5688 5689 5689 5688 5687 5686 5684 5682 5679 5676 5672 5668 5664 5660 5654 5648 5642 5635 5628 5620 5610 5601 5592
5570 5580 5589 5597 5606 5614 5621 5628 5635 5641 5647 5652 5657 5662 5666 5669 5672 5675 5677 5678 5680 5680 5681 5680 5679 5678 5676 5673 5670 5667 5664 5660 5656 5651 5646 5639 5632 5625 5618 5610 5601 5592 5582
5560 5570 5579 5588 5596 5604 5611 5618 5625 5631 5638 5643 5648 5652 5657 5660 5663 5666 5668 5670 5671 5672 5672 5672 5671 5670 5667 5665 5662 5659 5656 5651 5646 5642 5636 5630 5623 5616 5609 5601 5592 5583 5574
5551 5560 5569 5578 5587 5595 5602 5609 5616 5622 5628 5634 5639 5643 5648 5652 5655 5657 5659 5661 5663 5664 5664 5664 5663 5661 5659 5656 5654 5651 5647 5643 5638 5633 5627 5621 5614 5607 5599 5591 5583 5574 5565
5542 5551 5560 5569 5577 5585 5593 5600 5606 5613 5619 5625 5630 5634 5639 5643 5646 5648 5651 5653 5654 5655 5656 5655 5654 5653 5651 5648 5645 5642 5639 5634 5630 5625 5619 5613 5606 5598 5590 5582 5574 5565 5556
5533 5542 5551 5560 5568 5576 5583 5590 5597 5603 5610 5616 5621 5626 5630 5634 5637 5640 5642 5644 5646 5647 5647 5647 5646 5644 5642 5640 5637 5634 5630 5626 5622 5616 5611 5604 5597 5589 5581 5573 5565 5556 5547
5523 5532 5541 5550 5558 5566 5574 5581 5588 5595 5601 5607 5612 5617 5622 5625 5629 5631 5634 5636 5637 5638 5638 5638 5637 5636 5634 5631 5629 5626 5622 5618 5613 5608 5602 5596 5589 5581 5573 5565 5556 5547 5538
5515 5524 5532 5541 5549 5557 5565 5573 5580 5586 5592 5598 5604 5609 5613 5617 5620 5623 5626 5628 5629 5630 5630 5629 5628 5627 5626 5624 5621 5618 5614 5610 5605 5600 5594 5587 5580 5573 5565 5557 5548 5539 5529
5507 5516 5524 5532 5541 5549 5557 5565 5572 5579 5584 5590 5596 5601 5605 5609 5613 5616 5618 5620 5621 5621 5621 5621 5620 5619 5618 5616 5613 5610 5606 5602 5597 5591 5585 5579 5572 5564 5556 5548 5540 5531 5521
5499 5508 5516 5524 5532 5540 5548 5556 5563 5570 5576 5582 5587 5592 5597 5601 5604 5607 5609 5611 5612 5613 5613 5613 5613 5612 5610 5608 5605 5602 5598 5594 5589 5583 5577 5570 5563 5556 5548 5540 5531 5522 5513
5492 5500 5508 5516 5525 5533 5540 5548 5555 5561 5567 5573 5579 5584 5589 5593 5596 5599 5601 5603 5604 5605 5606 5606 5605 5604 5602 5600 5597 5594 5590 5586 5580 5575 5569 5562 5555 5548 5540 5532 5523 5514 5505
5484 5492 5500 5508 5517 5525 5533 5540 5547 5554 5560 5566 5571 5576 5581 5585 5588 5591 5593 5595 5596 5597 5598 5598 5597 5596 5594 5592 5589 5586 5582 5577 5572 5567 5560 5554 5547 5540 5532 5523 5515 5506 5497
5476 5485 5493 5501 5509 5517 5525 5532 5539 5546 5552 5558 5564 5569 5573 5577 5580 5583 5585 5588 5589 5590 5590 5590 5589 5588 5586 5584 5581 5578 5574 5569 5564 5559 5552 5546 5539 5531 5523 5515 5506 5498 5489
5470 5478 5486 5494 5502 5510 5518 5525 5532 5539 5545 5551 5557 5562 5566 5569 5573 5576 5578 5580 5581 5582 5582 5582 5581 5580 5578 5576 5573 5570 5566 5561 5556 5550 5544 5537 5530 5523 5515 5507 5498 5490 5482
5463 5471 5479 5487 5495 5503 5511 5518 5525 5532 5538 5544 5550 5555 5559 5563 5566 5569 5571 5572 5573 5574 5574 5574 5573 5572 5570 5568 5565 5562 5558 5553 5548 5542 5536 5529 5522 5515 5507 5499 5491 5483 5475
5456 5464 5473 5481 5489 5497 5504 5511 5518 5525 5531 5537 5542 5547 5551 5555 5558 5561 5563 5565 5566 5567 5567 5567 5566 5565 5563 5561 5558 5554 5550 5545 5540 5534 5528 5521 5514 5507 5499 5491 5483 5476 5468
5450 5458 5467 5475 5483 5491 5498 5505 5512 5519 5525 5531 5536 5540 5544 5548 5551 5554 5556 5557 5559 5559 5559 5559 5559 5557 5556 5553 5550 5547 5542 5537 5532 5526 5520 5513 5506 5499 5491 5484 5477 5469 5462
5445 5453 5462 5470 5478 5485 5493 5500 5506 5513 5519 5524 5529 5533 5537 5541 5544 5546 5549 5550 5551 5552 5552 5552 5551 5550 5548 5546 5542 5538 5534 5529 5524 5518 5512 5505 5499 5491 5484 5477 5470 5463 5457
5440 5449 5457 5465 5473 5480 5488 5494 5501 5507 5512 5518 5522 5527 5531 5534 5537 5539 5541 5543 5544 5545 5545 5545 5544 5543 5541 5538 5535 5531 5526 5521 5516 5510 5504 5498 5492 5485 5478 5471 5465 5458 5452
5437 5444 5453 5461 5468 5476 5483 5489 5495 5501 5507 5512 5516 5521 5524 5528 5531 5533 5535 5537 5538 5538 5539 5538 5537 5536 5533 5531 5527 5523 5519 5514 5509 5503 5497 5491 5485 5479 5472 5466 5460 5453 5447